Radiation Dose at Monitoring Post of Fukushima Daini Nuclear Power Station
Date,Time,MP-1(microSv/h),MP-2(microSv/h),MP-3(microSv/h),MP-4(microSv/h),MP-5(microSv/h),MP-6(microSv/h),MP-7(microSv/h),Wind Direction,Wind Velocity(m/s),Rain
2017/02/02,00:00,0.393,0.234,0.403,0.375,0.338,0.193,0.166,northwest,5.3,No
2017/02/02,00:10,0.391,0.232,0.404,0.375,0.337,0.193,0.166,west-northwest,4.8,No
2017/02/02,00:20,0.389,0.233,0.404,0.376,0.337,0.194,0.166,north-northwest,2.8,No
2017/02/02,00:30,0.390,0.234,0.405,0.375,0.338,0.194,0.166,west-northwest,3.0,No
2017/02/02,00:40,0.392,0.233,0.404,0.374,0.339,0.193,0.167,west-northwest,4.9,No
2017/02/02,00:50,0.391,0.232,0.405,0.375,0.338,0.192,0.167,west-northwest,8.1,No
2017/02/02,01:00,0.392,0.232,0.403,0.375,0.338,0.194,0.166,west-northwest,8.7,No
2017/02/02,01:10,0.392,0.234,0.404,0.376,0.338,0.193,0.166,northwest,11.5,No
2017/02/02,01:20,0.390,0.234,0.404,0.375,0.339,0.193,0.167,west-northwest,8.0,No
2017/02/02,01:30,0.392,0.233,0.403,0.376,0.337,0.194,0.167,west-northwest,7.5,No
2017/02/02,01:40,0.392,0.233,0.406,0.374,0.338,0.194,0.166,west-northwest,8.0,No
2017/02/02,01:50,0.391,0.233,0.406,0.375,0.338,0.195,0.167,northwest,8.5,No
2017/02/02,02:00,0.392,0.233,0.403,0.376,0.339,0.194,0.167,west-northwest,5.9,No
2017/02/02,02:10,0.391,0.233,0.405,0.375,0.339,0.194,0.166,northwest,5.3,No
2017/02/02,02:20,0.392,0.233,0.404,0.375,0.337,0.194,0.166,northwest,6.6,No
2017/02/02,02:30,0.393,0.235,0.405,0.375,0.338,0.195,0.166,northwest,7.4,No
2017/02/02,02:40,0.393,0.234,0.404,0.374,0.337,0.194,0.167,west-northwest,7.2,No
2017/02/02,02:50,0.392,0.231,0.404,0.374,0.338,0.193,0.166,northwest,5.9,No
2017/02/02,03:00,0.391,0.234,0.405,0.374,0.339,0.194,0.166,west-northwest,6.1,No
2017/02/02,03:10,0.391,0.232,0.405,0.374,0.338,0.193,0.166,west-northwest,8.4,No
2017/02/02,03:20,0.390,0.235,0.404,0.375,0.337,0.193,0.166,northwest,10.1,No
2017/02/02,03:30,0.391,0.233,0.404,0.375,0.337,0.194,0.167,northwest,8.4,No
2017/02/02,03:40,0.392,0.234,0.404,0.373,0.338,0.194,0.165,northwest,8.1,No
2017/02/02,03:50,0.392,0.232,0.405,0.375,0.339,0.194,0.166,northwest,7.2,No
2017/02/02,04:00,0.392,0.235,0.403,0.376,0.337,0.194,0.167,northwest,8.1,No
2017/02/02,04:10,0.391,0.235,0.403,0.375,0.335,0.194,0.166,northwest,5.9,No
2017/02/02,04:20,0.391,0.233,0.404,0.374,0.337,0.193,0.165,west-northwest,8.8,No
2017/02/02,04:30,0.392,0.234,0.407,0.375,0.337,0.194,0.166,northwest,7.3,No
2017/02/02,04:40,0.391,0.233,0.404,0.375,0.338,0.194,0.167,northwest,7.4,No
2017/02/02,04:50,0.390,0.231,0.405,0.376,0.339,0.193,0.165,northwest,6.7,No
2017/02/02,05:00,0.391,0.234,0.403,0.375,0.338,0.194,0.166,north-northwest,3.6,No
2017/02/02,05:10,0.391,0.232,0.405,0.375,0.337,0.193,0.166,north-northwest,3.4,No
2017/02/02,05:20,0.391,0.232,0.404,0.376,0.338,0.194,0.166,north-northeast,1.3,No
2017/02/02,05:30,0.392,0.233,0.405,0.374,0.337,0.193,0.165,-,CALM,No
2017/02/02,05:40,0.391,0.232,0.404,0.376,0.338,0.193,0.165,east-southeast,1.3,No
2017/02/02,05:50,0.391,0.232,0.404,0.374,0.338,0.193,0.164,east-southeast,2.0,No
2017/02/02,06:00,0.392,0.232,0.405,0.374,0.338,0.192,0.166,northeast,2.1,No
2017/02/02,06:10,0.391,0.234,0.402,0.374,0.337,0.193,0.166,north-northeast,5.7,No
2017/02/02,06:20,0.391,0.232,0.403,0.374,0.337,0.193,0.166,north-northeast,5.8,No
2017/02/02,06:30,0.391,0.233,0.405,0.374,0.338,0.192,0.166,north,4.2,No
2017/02/02,06:40,0.391,0.232,0.405,0.375,0.337,0.194,0.166,north,4.2,No
2017/02/02,06:50,0.391,0.234,0.404,0.374,0.337,0.193,0.166,north-northeast,2.8,No
2017/02/02,07:00,0.391,0.232,0.402,0.374,0.338,0.193,0.166,north-northeast,2.5,No
2017/02/02,07:10,0.391,0.233,0.405,0.374,0.337,0.193,0.166,north-northeast,3.1,No
2017/02/02,07:20,0.391,0.232,0.402,0.373,0.337,0.193,0.166,north,5.3,No
2017/02/02,07:30,0.392,0.234,0.403,0.374,0.337,0.193,0.165,north-northeast,3.6,No
2017/02/02,07:40,0.392,0.232,0.404,0.374,0.337,0.193,0.166,north-northwest,4.1,No
2017/02/02,07:50,0.390,0.233,0.403,0.373,0.337,0.193,0.165,north-northwest,3.2,No
2017/02/02,08:00,0.391,0.234,0.403,0.374,0.338,0.193,0.166,north-northwest,3.4,No
2017/02/02,08:10,0.393,0.233,0.404,0.374,0.335,0.193,0.164,north-northwest,3.6,No
2017/02/02,08:20,0.392,0.232,0.404,0.372,0.337,0.192,0.165,northwest,10.1,No
2017/02/02,08:30,0.390,0.232,0.404,0.372,0.336,0.192,0.166,northwest,7.4,No
2017/02/02,08:40,0.390,0.231,0.404,0.373,0.337,0.194,0.165,northwest,8.9,No
2017/02/02,08:50,0.390,0.233,0.404,0.373,0.337,0.194,0.166,west-northwest,6.1,No
2017/02/02,09:00,0.389,0.232,0.403,0.374,0.338,0.193,0.166,west-northwest,8.0,No
2017/02/02,09:10,0.392,0.231,0.405,0.372,0.336,0.193,0.165,west-northwest,9.6,No
2017/02/02,09:20,0.391,0.231,0.404,0.374,0.336,0.193,0.165,west-northwest,9.5,No
2017/02/02,09:30,0.391,0.230,0.392,0.372,0.338,0.192,0.166,west-northwest,8.3,No
2017/02/02,09:40,0.389,0.231,0.395,0.372,0.337,0.193,0.165,west-northwest,9.5,No
2017/02/02,09:50,0.390,0.231,-,0.375,0.337,0.193,0.166,west,10.4,No
2017/02/02,10:00,0.391,0.232,-,0.374,0.337,0.192,0.166,northwest,10.0,No
2017/02/02,10:10,0.390,0.231,-,0.372,0.338,0.192,0.166,west-northwest,9.9,No
2017/02/02,10:20,0.389,0.232,-,0.375,0.338,0.193,0.166,west-northwest,7.9,No
2017/02/02,10:30,0.389,0.231,-,0.373,0.336,0.192,0.167,west-northwest,9.4,No
2017/02/02,10:40,0.390,0.232,-,0.373,0.339,0.193,0.166,west-northwest,9.9,No
2017/02/02,10:50,0.390,0.231,-,0.374,0.337,0.192,0.166,west-northwest,8.2,No
2017/02/02,11:00,0.390,0.232,-,0.373,0.338,0.193,0.167,west-northwest,9.4,No
2017/02/02,11:10,0.389,0.232,-,0.374,0.338,0.193,0.166,west-northwest,9.5,No
2017/02/02,11:20,0.389,0.231,-,0.375,0.338,0.193,0.166,northwest,9.8,No
2017/02/02,11:30,0.391,0.232,-,0.372,0.337,0.193,0.166,northwest,11.8,No
2017/02/02,11:40,0.389,0.233,-,0.374,0.337,0.193,0.166,northwest,10.8,No
2017/02/02,11:50,0.390,0.232,-,0.374,0.337,0.193,0.165,northwest,10.4,No
2017/02/02,12:00,0.389,0.231,-,0.373,0.338,0.193,0.165,west-northwest,9.3,No
2017/02/02,12:10,0.391,0.232,-,0.374,0.337,0.193,0.166,northwest,10.1,No
2017/02/02,12:20,0.390,0.231,-,0.373,0.340,0.194,0.166,west-northwest,14.4,No
2017/02/02,12:30,0.390,0.232,-,0.373,0.336,0.193,0.167,west-northwest,12.3,No
2017/02/02,12:40,0.391,0.231,-,0.374,0.336,0.194,0.166,west-northwest,13.9,No
2017/02/02,12:50,0.393,0.232,-,0.371,0.337,0.193,0.166,northwest,14.1,No
2017/02/02,13:00,0.392,0.232,-,0.374,0.336,0.195,0.166,northwest,14.5,No
2017/02/02,13:10,0.392,0.232,-,0.375,0.338,0.193,0.167,northwest,14.6,No
2017/02/02,13:20,0.391,0.233,-,0.373,0.338,0.194,0.165,northwest,13.8,No
2017/02/02,13:30,0.392,0.232,-,0.375,0.338,0.193,0.166,northwest,14.6,No
2017/02/02,13:40,0.392,0.232,-,0.374,0.339,0.194,0.166,west-northwest,14.9,No
2017/02/02,13:50,0.391,0.233,-,0.374,0.338,0.193,0.166,west-northwest,11.5,No
2017/02/02,14:00,0.392,0.233,-,0.374,0.338,0.193,0.165,west-northwest,13.5,No
2017/02/02,14:10,0.391,0.232,-,0.375,0.339,0.194,0.166,northwest,13.7,No
2017/02/02,14:20,0.390,0.233,-,0.374,0.338,0.194,0.166,west-northwest,12.3,No
2017/02/02,14:30,0.391,0.233,-,0.376,0.338,0.193,0.166,northwest,14.1,No
2017/02/02,14:40,0.392,0.232,-,0.375,0.340,0.193,0.166,northwest,8.8,No
2017/02/02,14:50,0.394,0.233,-,0.376,0.340,0.193,0.166,west-northwest,12.4,No
2017/02/02,15:00,0.391,0.232,-,0.375,0.338,0.194,0.166,west-northwest,10.8,No
2017/02/02,15:10,0.393,0.233,-,0.377,0.339,0.193,0.167,west-northwest,8.9,No
2017/02/02,15:20,0.392,0.232,-,0.375,0.341,0.193,0.166,west-northwest,8.7,No
2017/02/02,15:30,0.393,0.233,-,0.375,0.340,0.193,0.166,west-northwest,13.1,No
2017/02/02,15:40,0.392,0.234,-,0.375,0.338,0.194,0.166,west-northwest,10.0,No
2017/02/02,15:50,0.393,0.233,-,0.377,0.337,0.194,0.167,west-northwest,10.7,No
2017/02/02,16:00,0.393,0.232,-,0.375,0.338,0.193,0.166,west-northwest,10.5,No
2017/02/02,16:10,0.393,0.233,-,0.374,0.338,0.192,0.167,west-northwest,13.5,No
2017/02/02,16:20,0.391,0.232,0.403,0.376,0.341,0.194,0.166,west-northwest,11.5,No
2017/02/02,16:30,0.391,0.234,0.404,0.376,0.341,0.193,0.166,west-northwest,10.6,No
2017/02/02,16:40,0.392,0.234,0.407,0.377,0.339,0.194,0.166,west-northwest,8.6,No
2017/02/02,16:50,0.392,0.233,0.406,0.375,0.339,0.194,0.166,northwest,9.7,No
2017/02/02,17:00,0.392,0.235,0.405,0.376,0.339,0.195,0.166,west-northwest,8.9,No
2017/02/02,17:10,0.391,0.234,0.405,0.376,0.340,0.194,0.166,west-northwest,10.0,No
2017/02/02,17:20,0.393,0.236,0.405,0.376,0.339,0.194,0.167,northwest,9.5,No
2017/02/02,17:30,0.392,0.233,0.406,0.375,0.339,0.194,0.166,northwest,12.1,No
2017/02/02,17:40,0.393,0.234,0.406,0.376,0.338,0.194,0.167,west-northwest,12.5,No
2017/02/02,17:50,0.392,0.234,0.406,0.374,0.339,0.194,0.167,west-northwest,9.6,No
2017/02/02,18:00,0.392,0.233,0.404,0.375,0.339,0.193,0.167,west-northwest,7.1,No
2017/02/02,18:10,0.392,0.235,0.405,0.375,0.339,0.195,0.166,west-northwest,8.7,No
2017/02/02,18:20,0.393,0.233,0.407,0.375,0.338,0.193,0.166,west-northwest,8.4,No
2017/02/02,18:30,0.392,0.235,0.405,0.374,0.338,0.193,0.166,west,9.2,No
2017/02/02,18:40,0.393,0.233,0.405,0.376,0.337,0.194,0.166,west,9.5,No
2017/02/02,18:50,0.393,0.234,0.404,0.375,0.340,0.195,0.168,west,5.6,No
2017/02/02,19:00,0.395,0.234,0.406,0.374,0.338,0.193,0.166,west,4.8,No
2017/02/02,19:10,0.393,0.234,0.407,0.373,0.339,0.194,0.166,west,5.2,No
2017/02/02,19:20,0.393,0.234,0.405,0.375,0.338,0.194,0.166,west,3.3,No
2017/02/02,19:30,0.392,0.234,0.403,0.376,0.338,0.194,0.166,west,5.1,No
2017/02/02,19:40,0.393,0.234,0.404,0.376,0.336,0.193,0.166,west,5.5,No
2017/02/02,19:50,0.393,0.234,0.405,0.374,0.335,0.195,0.165,west-southwest,5.6,No
2017/02/02,20:00,0.392,0.233,0.405,0.375,0.338,0.193,0.166,west,5.2,No
2017/02/02,20:10,0.392,0.233,0.404,0.376,0.339,0.193,0.166,west,6.8,No
2017/02/02,20:20,0.392,0.233,0.404,0.376,0.337,0.194,0.167,west,4.8,No
2017/02/02,20:30,0.393,0.233,0.405,0.375,0.337,0.193,0.166,west,4.5,No
2017/02/02,20:40,0.392,0.234,0.406,0.375,0.337,0.194,0.165,west-southwest,3.0,No
2017/02/02,20:50,0.392,0.232,0.404,0.374,0.337,0.193,0.166,southwest,1.5,No
2017/02/02,21:00,0.392,0.233,0.405,0.374,0.337,0.194,0.166,west-southwest,2.3,No
2017/02/02,21:10,0.393,0.233,0.403,0.374,0.338,0.194,0.166,west-southwest,2.9,No
2017/02/02,21:20,0.391,0.233,0.405,0.375,0.338,0.193,0.166,west-southwest,4.1,No
2017/02/02,21:30,0.391,0.233,0.404,0.376,0.336,0.194,0.166,southwest,2.2,No
2017/02/02,21:40,0.390,0.233,0.404,0.375,0.338,0.193,0.166,south-southwest,3.7,No
2017/02/02,21:50,0.391,0.233,0.404,0.373,0.338,0.193,0.165,southwest,5.0,No
2017/02/02,22:00,0.392,0.233,0.405,0.375,0.337,0.194,0.165,southwest,4.2,No
2017/02/02,22:10,0.391,0.232,0.404,0.377,0.336,0.194,0.167,south-southwest,4.7,No
2017/02/02,22:20,0.392,0.233,0.404,0.375,0.337,0.194,0.165,southwest,4.2,No
2017/02/02,22:30,0.391,0.232,0.404,0.376,0.339,0.195,0.167,southwest,3.0,No
2017/02/02,22:40,0.392,0.233,0.406,0.374,0.337,0.193,0.167,south-southwest,2.5,No
2017/02/02,22:50,0.391,0.233,0.405,0.376,0.338,0.194,0.166,south-southwest,2.5,No
2017/02/02,23:00,0.390,0.233,0.404,0.375,0.338,0.194,0.165,south-southwest,4.3,No
2017/02/02,23:10,0.393,0.232,0.405,0.377,0.339,0.193,0.166,south-southwest,4.1,No
2017/02/02,23:20,0.391,0.232,0.405,0.375,0.339,0.193,0.167,south-southwest,4.9,No
2017/02/02,23:30,0.392,0.234,0.404,0.375,0.338,0.194,0.166,south,4.9,No
2017/02/02,23:40,0.392,0.233,0.405,0.376,0.337,0.193,0.167,south,4.2,No
2017/02/02,23:50,0.392,0.232,0.404,0.376,0.338,0.194,0.166,south,3.4,No
